Вернуться в каталог

SJ-23

АктивенНаукаGEO
NORAD 55131·PAYLOAD·🇨🇳 China

Запущен Jan 8, 2023 с Wenchang Space Launch Site

Loading…

TLE

СвежийSource: Space-Track

Эпоха: Sep 14, 2026, 15:53 UTC

1 55131U 23002A   26257.66211472 -.00000080  00000-0  00000+0 0  9991
2 55131   3.9416  77.1370 0002935 231.0809   3.0403  1.00024641 13403

Отслеживайте SJ-23 в реальном времени с AllMySat

Download on the App Store